When you browse on this site, cookies collect data to enhance your experience and personalize the content and advertising you see.
Visit our Privacy Policy to learn more. By continuing to use the site, you agree to this use of cookies and data.

Meteo pe oră la Sarcelles

Astăzi, 3 Iulie, Vineri

Timp Temperatura Precipitaţii Vânt Presiune Umiditate
00:00 +14°C° 0 mm 2 m/s 757 mmHg 83%
01:00 +14°C° 0 mm 2 m/s 757 mmHg 84%
02:00 +14°C° 0 mm 2 m/s 757 mmHg 85%
03:00 +13°C° 0 mm 2 m/s 757 mmHg 87%
04:00 +14°C° 0 mm 2 m/s 757 mmHg 85%
05:00 +13°C° 0 mm 3 m/s 758 mmHg 83%
06:00 +15°C° 0 mm 2 m/s 758 mmHg 82%
07:00 +16°C° 0 mm 3 m/s 758 mmHg 75%
08:00 +18°C° 0 mm 3 m/s 758 mmHg 68%
09:00 +19°C° 0 mm 3 m/s 759 mmHg 61%
10:00 +20°C° 0 mm 3 m/s 759 mmHg 58%
11:00 +21°C° 0 mm 4 m/s 759 mmHg 54%
12:00 +22°C° 0 mm 4 m/s 759 mmHg 51%
13:00 +22°C° 0 mm 4 m/s 758 mmHg 51%
14:00 +22°C° 0 mm 4 m/s 758 mmHg 52%
15:00 +22°C° 0 mm 4 m/s 758 mmHg 52%
16:00 +22°C° 0 mm 4 m/s 758 mmHg 54%
17:00 +21°C° 0 mm 3 m/s 758 mmHg 57%
18:00 +21°C° 0 mm 3 m/s 758 mmHg 59%
19:00 +20°C° 0 mm 2 m/s 758 mmHg 62%
20:00 +19°C° 0 mm 2 m/s 758 mmHg 65%
21:00 +18°C° 0 mm 2 m/s 758 mmHg 68%
22:00 +17°C° 0 mm 2 m/s 758 mmHg 71%
23:00 +17°C° 0 mm 3 m/s 759 mmHg 74%

Mâine, 4 Iulie, Sâmbătă

Timp Temperatura Precipitaţii Vânt Presiune Umiditate
00:00 +17°C° 0 mm 3 m/s 759 mmHg 77%
01:00 +16°C° 0 mm 3 m/s 758 mmHg 78%
02:00 +16°C° 0 mm 3 m/s 758 mmHg 79%
03:00 +16°C° 0 mm 3 m/s 758 mmHg 80%
04:00 +15°C° 0 mm 4 m/s 758 mmHg 78%
05:00 +15°C° 0 mm 4 m/s 758 mmHg 75%
06:00 +15°C° 0 mm 4 m/s 758 mmHg 73%
07:00 +15°C° 0 mm 4 m/s 758 mmHg 73%
08:00 +16°C° 0 mm 5 m/s 758 mmHg 73%
09:00 +16°C° 0 mm 5 m/s 758 mmHg 74%
10:00 +19°C° 0 mm 5 m/s 758 mmHg 71%
11:00 +20°C° 0 mm 5 m/s 757 mmHg 68%
12:00 +22°C° 0 mm 6 m/s 757 mmHg 65%
13:00 +22°C° 0 mm 5 m/s 757 mmHg 66%
14:00 +22°C° 0 mm 5 m/s 757 mmHg 68%
15:00 +22°C° 0 mm 5 m/s 757 mmHg 69%
16:00 +22°C° 0 mm 5 m/s 757 mmHg 72%
17:00 +21°C° 0 mm 5 m/s 756 mmHg 75%
18:00 +20°C° 0 mm 5 m/s 756 mmHg 78%
19:00 +20°C° 0 mm 5 m/s 756 mmHg 80%
20:00 +20°C° 0 mm 5 m/s 757 mmHg 81%
21:00 +19°C° 0 mm 5 m/s 757 mmHg 83%
22:00 +19°C° 0 mm 5 m/s 757 mmHg 84%
23:00 +19°C° 0 mm 5 m/s 757 mmHg 85%

Poimâine, 5 Iulie, Duminică

Timp Temperatura Precipitaţii Vânt Presiune Umiditate
00:00 +19°C° 0 mm 5 m/s 756 mmHg 86%
01:00 +19°C° 0 mm 4 m/s 756 mmHg 86%
02:00 +19°C° 0 mm 4 m/s 756 mmHg 86%
03:00 +19°C° 0 mm 4 m/s 756 mmHg 86%
04:00 +20°C° 0 mm 4 m/s 756 mmHg 84%
05:00 +20°C° 0 mm 4 m/s 756 mmHg 83%
06:00 +20°C° 0 mm 4 m/s 756 mmHg 82%
07:00 +20°C° 0 mm 5 m/s 756 mmHg 79%
08:00 +21°C° 0 mm 5 m/s 756 mmHg 76%
09:00 +21°C° 0 mm 5 m/s 756 mmHg 73%
10:00 +22°C° 0 mm 5 m/s 756 mmHg 70%
11:00 +23°C° 0 mm 6 m/s 756 mmHg 67%
12:00 +24°C° 0 mm 6 m/s 756 mmHg 64%
13:00 +23°C° 0 mm 6 m/s 755 mmHg 66%
14:00 +23°C° 0 mm 6 m/s 755 mmHg 67%
15:00 +23°C° 0 mm 6 m/s 755 mmHg 69%
16:00 +22°C° 0.1 mm 6 m/s 755 mmHg 71%
17:00 +22°C° 0.1 mm 5 m/s 755 mmHg 74%
18:00 +21°C° 0.1 mm 5 m/s 755 mmHg 76%
19:00 +20°C° 0.1 mm 5 m/s 755 mmHg 78%
20:00 +19°C° 0.1 mm 4 m/s 755 mmHg 79%
21:00 +18°C° 0.1 mm 4 m/s 756 mmHg 80%
22:00 +17°C° 0 mm 4 m/s 756 mmHg 79%
23:00 +14°C° 0 mm 4 m/s 756 mmHg 78%

6 Iulie, Luni

Timp Temperatura Precipitaţii Vânt Presiune Umiditate
00:00 +13°C° 0 mm 4 m/s 756 mmHg 77%
01:00 +13°C° 0 mm 4 m/s 756 mmHg 75%
02:00 +13°C° 0 mm 4 m/s 756 mmHg 74%
03:00 +13°C° 0 mm 3 m/s 756 mmHg 72%
04:00 +13°C° 0 mm 4 m/s 757 mmHg 70%
05:00 +14°C° 0 mm 4 m/s 757 mmHg 69%
06:00 +14°C° 0 mm 4 m/s 757 mmHg 67%
07:00 +15°C° 0 mm 4 m/s 758 mmHg 63%
08:00 +17°C° 0 mm 4 m/s 758 mmHg 59%
09:00 +18°C° 0 mm 4 m/s 758 mmHg 55%
10:00 +19°C° 0 mm 4 m/s 758 mmHg 54%
11:00 +19°C° 0 mm 4 m/s 758 mmHg 53%
12:00 +20°C° 0 mm 5 m/s 758 mmHg 51%
13:00 +20°C° 0 mm 5 m/s 759 mmHg 51%
14:00 +20°C° 0 mm 5 m/s 759 mmHg 51%
15:00 +20°C° 0 mm 5 m/s 759 mmHg 52%
16:00 +20°C° 0 mm 5 m/s 759 mmHg 54%
17:00 +19°C° 0 mm 5 m/s 759 mmHg 56%
18:00 +19°C° 0 mm 4 m/s 759 mmHg 58%
19:00 +17°C° 0 mm 4 m/s 759 mmHg 63%
20:00 +16°C° 0 mm 3 m/s 760 mmHg 69%
21:00 +14°C° 0 mm 2 m/s 760 mmHg 74%
22:00 +14°C° 0 mm 2 m/s 760 mmHg 76%
23:00 +13°C° 0 mm 2 m/s 760 mmHg 79%

7 Iulie, Marţi

Timp Temperatura Precipitaţii Vânt Presiune Umiditate
00:00 +12°C° 0 mm 2 m/s 760 mmHg 81%
01:00 +12°C° 0 mm 1 m/s 760 mmHg 82%
02:00 +12°C° 0 mm 1 m/s 760 mmHg 83%
03:00 +12°C° 0 mm 1 m/s 760 mmHg 84%
04:00 +12°C° 0 mm 1 m/s 760 mmHg 82%
05:00 +13°C° 0 mm 1 m/s 760 mmHg 80%
06:00 +14°C° 0 mm 1 m/s 760 mmHg 79%
07:00 +16°C° 0 mm 1 m/s 760 mmHg 71%
08:00 +18°C° 0 mm 2 m/s 760 mmHg 64%
09:00 +19°C° 0 mm 2 m/s 761 mmHg 57%
10:00 +20°C° 0 mm 2 m/s 760 mmHg 52%
11:00 +21°C° 0 mm 3 m/s 760 mmHg 48%
12:00 +22°C° 0 mm 3 m/s 760 mmHg 43%
13:00 +22°C° 0 mm 4 m/s 760 mmHg 44%
14:00 +22°C° 0 mm 4 m/s 760 mmHg 45%
15:00 +22°C° 0 mm 4 m/s 760 mmHg 45%
16:00 +22°C° 0 mm 4 m/s 760 mmHg 48%
17:00 +21°C° 0 mm 4 m/s 760 mmHg 51%
18:00 +20°C° 0 mm 4 m/s 760 mmHg 55%
19:00 +19°C° 0 mm 4 m/s 761 mmHg 60%
20:00 +17°C° 0 mm 3 m/s 761 mmHg 65%
21:00 +14°C° 0 mm 3 m/s 761 mmHg 70%
22:00 +14°C° 0 mm 3 m/s 761 mmHg 71%
23:00 +13°C° 0 mm 3 m/s 761 mmHg 72%

8 Iulie, Miercuri

Timp Temperatura Precipitaţii Vânt Presiune Umiditate
00:00 +13°C° 0 mm 2 m/s 761 mmHg 72%
01:00 +12°C° 0 mm 2 m/s 761 mmHg 74%
02:00 +12°C° 0 mm 2 m/s 761 mmHg 76%
03:00 +10°C° 0 mm 2 m/s 761 mmHg 78%
04:00 +12°C° 0 mm 2 m/s 761 mmHg 75%
05:00 +13°C° 0 mm 2 m/s 761 mmHg 72%
06:00 +13°C° 0 mm 2 m/s 761 mmHg 69%
07:00 +15°C° 0 mm 2 m/s 761 mmHg 61%
08:00 +17°C° 0 mm 2 m/s 761 mmHg 53%
09:00 +19°C° 0 mm 2 m/s 761 mmHg 45%
10:00 +21°C° 0 mm 2 m/s 761 mmHg 41%
11:00 +23°C° 0 mm 2 m/s 761 mmHg 38%
12:00 +24°C° 0 mm 2 m/s 760 mmHg 34%
13:00 +25°C° 0 mm 2 m/s 760 mmHg 34%
14:00 +25°C° 0 mm 2 m/s 760 mmHg 33%
15:00 +26°C° 0 mm 2 m/s 759 mmHg 33%
16:00 +25°C° 0 mm 2 m/s 759 mmHg 37%
17:00 +25°C° 0 mm 1 m/s 759 mmHg 41%
18:00 +24°C° 0 mm 1 m/s 759 mmHg 45%
19:00 +23°C° 0 mm 1 m/s 759 mmHg 50%
20:00 +21°C° 0 mm 1 m/s 759 mmHg 54%
21:00 +19°C° 0 mm 1 m/s 759 mmHg 58%
22:00 +18°C° 0 mm 1 m/s 759 mmHg 63%
23:00 +16°C° 0 mm 1 m/s 759 mmHg 68%
Arată mai mult